Regional Weather Roundup
Issued by NWS Goodland, KS

Home | Current Version | Previous Version | Graphics & Text | Print | Product List | Glossary On
Versions: 1 2 3 4 5 6 7 8 9 10 11 12 13 14 15 16 17 18 19 20 21 22 23 24 25 26 27 28 29 30 31 32 33 34 35 36 37 38 39 40 41 42 43 44 45 46 47 48 49 50
000
ASUS43 KGLD 222059
RWRGLD

GOODLAND FORECAST AREA HOURLY WEATHER ROUNDUP
NATIONAL WEATHER SERVICE GOODLAND KS
300 PM MDT FRI MAY 22 2015

...OFFICIAL OBSERVATIONS...

CITY           SKY/WX    TMP DP  RH WIND       PRES   REMARKS
GOODLAND KS    CLOUDY    54  51  90 SE21G29   30.02F
HILL CITY KS   CLOUDY    54  49  83 SE13      30.11F
IMPERIAL NEB   CLOUDY    49  47  93 SE21      30.07F
MCCOOK NEB     LGT RAIN  51  49  92 E16G22    30.10F FOG
AKRON CO       CLOUDY    53  50  89 E10       29.99F
BURLINGTON CO  CLOUDY    59  53  80 SE29G36   29.97F
LIMON CO       PTSUNNY   60  45  57 N5        29.98F
$$

...UNOFFICIAL OBSERVATIONS...

CITY           SKY/WX    TMP DP  RH WIND       PRES   REMARKS
GOVE KS          N/A     55  32  41 MISG        N/A
LENORA KS        N/A     52  32  46 MISG        N/A
SHARON SPRINGS   N/A     58  54  87 MISG        N/A
TRENTON NEB      N/A     49  32  52 E14         N/A
KIT CARSON CO    N/A     67  52  57 MISG        N/A
YUMA CO          N/A     54  54 100 E15         N/A
$$


USA.gov is the U.S. government's official web portal to all federal, state and local government web resources and services.